BAW904N EGLL-EDDF

Flight info

Callsign BAW904N
Flight time 1h 1m
Altitude 33000
Route DCT DET L6 DVR UL9 KONAN UL607 SPI T180 NIVNU T847 IMCOM DCT
Aircraft A319/M-SDE3FGIJ1KRWXY/LB1

Departure

Time 2026-05-04 02:51
Airport London Heathrow Airport (EGLL)

Arrival

Time 2026-05-04 03:53
Airport Frankfurt Main Airport (EDDF)
Time Latitude Longitude Altitude Speed Heading
2026-05-04 02:36 51.47271 -0.48588 89 ft 0 kts 269°
2026-05-04 02:44 51.47271 -0.48587 86 ft 1 kts 269°
2026-05-04 02:44 51.47271 -0.48547 88 ft 4 kts 269°
2026-05-04 02:44 51.47271 -0.48505 89 ft 4 kts 257°
2026-05-04 02:45 51.47283 -0.48476 90 ft 4 kts 194°
2026-05-04 02:45 51.47303 -0.48473 90 ft 4 kts 179°
2026-05-04 02:45 51.47310 -0.48473 90 ft 0 kts 179°
2026-05-04 02:48 51.47291 -0.48473 90 ft 5 kts 179°
2026-05-04 02:48 51.47249 -0.48473 87 ft 8 kts 179°
2026-05-04 02:48 51.47186 -0.48472 86 ft 10 kts 180°
2026-05-04 02:48 51.47105 -0.48472 86 ft 13 kts 180°
2026-05-04 02:49 51.47005 -0.48471 86 ft 16 kts 180°
2026-05-04 02:49 51.46902 -0.48470 86 ft 12 kts 180°
2026-05-04 02:49 51.46823 -0.48469 86 ft 11 kts 180°
2026-05-04 02:49 51.46741 -0.48469 86 ft 12 kts 180°
2026-05-04 02:50 51.46653 -0.48468 86 ft 9 kts 180°
2026-05-04 02:50 51.46584 -0.48468 87 ft 11 kts 180°
2026-05-04 02:50 51.46498 -0.48461 89 ft 13 kts 159°
2026-05-04 02:50 51.46480 -0.48296 88 ft 29 kts 90°
2026-05-04 02:51 51.46481 -0.47637 86 ft 89 kts 90°
2026-05-04 02:51 51.46485 -0.46336 89 ft 143 kts 89°
2026-05-04 02:51 51.46499 -0.44650 583 ft 150 kts 88°
2026-05-04 02:51 51.46527 -0.42972 1229 ft 151 kts 88°
2026-05-04 02:52 51.46317 -0.41278 1592 ft 171 kts 123°
2026-05-04 02:52 51.45507 -0.39721 1963 ft 194 kts 128°
2026-05-04 02:52 51.44733 -0.37798 2353 ft 217 kts 121°
2026-05-04 02:52 51.43942 -0.35601 2823 ft 240 kts 118°
2026-05-04 02:53 51.43399 -0.32945 3459 ft 261 kts 102°
2026-05-04 02:53 51.43015 -0.30056 4440 ft 268 kts 103°
2026-05-04 02:53 51.42602 -0.27106 5475 ft 273 kts 104°
2026-05-04 02:53 51.42169 -0.24116 6483 ft 278 kts 105°
2026-05-04 02:54 51.41707 -0.21079 7442 ft 282 kts 105°
2026-05-04 02:54 51.41228 -0.18007 8411 ft 286 kts 105°
2026-05-04 02:54 51.40739 -0.14894 9373 ft 290 kts 105°
2026-05-04 02:54 51.40242 -0.11726 10211 ft 299 kts 105°
2026-05-04 02:55 51.39152 -0.04770 11027 ft 338 kts 105°
2026-05-04 02:55 51.38584 -0.01120 11774 ft 344 kts 105°
2026-05-04 02:55 51.38002 0.02610 12572 ft 348 kts 106°
2026-05-04 02:56 51.37408 0.06394 13378 ft 352 kts 106°
2026-05-04 02:56 51.36808 0.10211 14125 ft 356 kts 107°
2026-05-04 02:56 51.36197 0.14085 14818 ft 360 kts 107°
2026-05-04 02:56 51.35579 0.18001 15506 ft 364 kts 107°
2026-05-04 02:57 51.34956 0.21947 16185 ft 368 kts 107°
2026-05-04 02:57 51.34325 0.25928 16862 ft 372 kts 107°
2026-05-04 02:57 51.33682 0.29968 17544 ft 376 kts 107°
2026-05-04 02:57 51.33031 0.34036 18217 ft 380 kts 107°
2026-05-04 02:58 51.32371 0.38148 18848 ft 384 kts 107°
2026-05-04 02:58 51.31706 0.42301 19464 ft 387 kts 107°
2026-05-04 02:58 51.31036 0.46486 20079 ft 391 kts 107°
2026-05-04 02:58 51.30356 0.50716 20665 ft 395 kts 107°
2026-05-04 02:59 51.29667 0.54985 21261 ft 399 kts 107°
2026-05-04 02:59 51.28971 0.59294 21861 ft 402 kts 107°
2026-05-04 02:59 51.28268 0.63634 22462 ft 406 kts 107°
2026-05-04 02:59 51.27554 0.68014 23040 ft 409 kts 107°
2026-05-04 03:00 51.26841 0.72368 23584 ft 412 kts 107°
2026-05-04 03:00 51.26111 0.76814 24050 ft 415 kts 108°
2026-05-04 03:00 51.25374 0.81295 24507 ft 418 kts 108°
2026-05-04 03:00 51.24632 0.85805 24956 ft 422 kts 108°
2026-05-04 03:01 51.23883 0.90340 25402 ft 425 kts 109°
2026-05-04 03:01 51.23125 0.94926 25852 ft 428 kts 109°
2026-05-04 03:01 51.22365 0.99526 26233 ft 432 kts 110°
2026-05-04 03:01 51.21593 1.04182 26633 ft 436 kts 110°
2026-05-04 03:02 51.20810 1.08877 27065 ft 439 kts 111°
2026-05-04 03:02 51.20020 1.13596 27502 ft 442 kts 111°
2026-05-04 03:02 51.19224 1.18364 27927 ft 446 kts 111°
2026-05-04 03:02 51.18434 1.23093 28354 ft 448 kts 112°
2026-05-04 03:03 51.17619 1.27909 28775 ft 451 kts 112°
2026-05-04 03:03 51.16800 1.32752 29185 ft 454 kts 112°
2026-05-04 03:03 51.16180 1.37742 29578 ft 465 kts 104°
2026-05-04 03:03 51.15920 1.42929 29937 ft 472 kts 101°
2026-05-04 03:04 51.15681 1.48165 30217 ft 476 kts 102°
2026-05-04 03:04 51.15431 1.53445 30495 ft 479 kts 102°
2026-05-04 03:04 51.15174 1.58747 30804 ft 482 kts 102°
2026-05-04 03:04 51.14909 1.64085 31110 ft 484 kts 101°
2026-05-04 03:05 51.14639 1.69442 31418 ft 487 kts 101°
2026-05-04 03:05 51.14369 1.74824 31794 ft 487 kts 101°
2026-05-04 03:05 51.14101 1.80191 32232 ft 486 kts 101°
2026-05-04 03:05 51.13831 1.85559 32661 ft 486 kts 101°
2026-05-04 03:06 51.13561 1.90928 32879 ft 486 kts 101°
2026-05-04 03:06 51.13014 2.01520 32950 ft 474 kts 101°
2026-05-04 03:07 51.12460 2.11936 32950 ft 471 kts 101°
2026-05-04 03:07 51.11893 2.22308 32951 ft 470 kts 101°
2026-05-04 03:08 51.11309 2.32670 32953 ft 470 kts 101°
2026-05-04 03:08 51.10734 2.43030 32933 ft 470 kts 101°
2026-05-04 03:09 51.10152 2.53394 32932 ft 470 kts 101°
2026-05-04 03:09 51.09513 2.63747 32934 ft 468 kts 105°
2026-05-04 03:10 51.07949 2.73578 32937 ft 460 kts 113°
2026-05-04 03:10 51.06183 2.83364 32936 ft 460 kts 113°
2026-05-04 03:11 51.04693 2.91559 32915 ft 461 kts 113°
2026-05-04 03:11 51.02895 3.01333 32923 ft 461 kts 113°
2026-05-04 03:12 51.01099 3.11070 32930 ft 462 kts 113°
2026-05-04 03:12 50.99296 3.20847 32932 ft 462 kts 113°
2026-05-04 03:13 50.97485 3.30634 32902 ft 462 kts 113°
2026-05-04 03:13 50.95665 3.40402 32917 ft 462 kts 113°
2026-05-04 03:14 50.93822 3.50186 32928 ft 463 kts 113°
2026-05-04 03:14 50.91977 3.59962 32931 ft 463 kts 113°
2026-05-04 03:15 50.90106 3.69731 32926 ft 463 kts 113°
2026-05-04 03:15 50.88236 3.79483 32917 ft 463 kts 112°
2026-05-04 03:16 50.86370 3.89189 32917 ft 464 kts 112°
2026-05-04 03:16 50.84491 3.98973 32932 ft 465 kts 112°
2026-05-04 03:17 50.82597 4.08749 32944 ft 465 kts 113°
2026-05-04 03:17 50.80674 4.18516 32952 ft 465 kts 113°
2026-05-04 03:18 50.78765 4.28272 32950 ft 464 kts 113°
2026-05-04 03:18 50.76853 4.37994 32968 ft 463 kts 113°
2026-05-04 03:19 50.74930 4.47702 32972 ft 462 kts 113°
2026-05-04 03:19 50.73003 4.57379 32973 ft 462 kts 113°
2026-05-04 03:20 50.71082 4.66981 32946 ft 461 kts 113°
2026-05-04 03:20 50.69139 4.76615 32940 ft 461 kts 113°
2026-05-04 03:21 50.67184 4.86298 32950 ft 460 kts 113°
2026-05-04 03:21 50.65250 4.95846 32956 ft 460 kts 113°
2026-05-04 03:22 50.63294 5.05443 32959 ft 460 kts 113°
2026-05-04 03:22 50.61326 5.15037 32933 ft 459 kts 113°
2026-05-04 03:23 50.59355 5.24586 32963 ft 458 kts 114°
2026-05-04 03:23 50.57385 5.34110 32972 ft 457 kts 114°
2026-05-04 03:24 50.55412 5.43592 32973 ft 456 kts 114°
2026-05-04 03:24 50.53428 5.53052 32970 ft 455 kts 114°
2026-05-04 03:25 50.51433 5.62513 32949 ft 455 kts 114°
2026-05-04 03:25 50.49572 5.72023 32947 ft 456 kts 112°
2026-05-04 03:26 50.47854 5.81555 32955 ft 456 kts 111°
2026-05-04 03:26 50.46118 5.91103 32960 ft 455 kts 112°
2026-05-04 03:27 50.44322 6.00622 32963 ft 455 kts 112°
2026-05-04 03:27 50.43411 6.05376 32698 ft 456 kts 112°
2026-05-04 03:27 50.42501 6.10122 32251 ft 453 kts 112°
2026-05-04 03:27 50.41595 6.14852 31684 ft 452 kts 112°
2026-05-04 03:28 50.40689 6.19567 31103 ft 451 kts 112°
2026-05-04 03:28 50.39721 6.24279 30735 ft 457 kts 114°
2026-05-04 03:28 50.38674 6.28991 30490 ft 458 kts 115°
2026-05-04 03:28 50.37581 6.33684 30242 ft 458 kts 116°
2026-05-04 03:29 50.36473 6.38357 29980 ft 457 kts 116°
2026-05-04 03:29 50.35371 6.43003 29700 ft 455 kts 116°
2026-05-04 03:29 50.34284 6.47646 29402 ft 453 kts 116°
2026-05-04 03:29 50.33217 6.52267 29115 ft 450 kts 115°
2026-05-04 03:30 50.32163 6.56872 28820 ft 447 kts 115°
2026-05-04 03:30 50.31122 6.61434 28261 ft 443 kts 115°
2026-05-04 03:30 50.30087 6.65950 27698 ft 439 kts 115°
2026-05-04 03:30 50.29057 6.70414 27137 ft 435 kts 115°
2026-05-04 03:31 50.28030 6.74855 26577 ft 431 kts 115°
2026-05-04 03:31 50.27011 6.79234 26039 ft 427 kts 115°
2026-05-04 03:31 50.26009 6.83522 25516 ft 423 kts 115°
2026-05-04 03:31 50.25001 6.87822 25009 ft 420 kts 115°
2026-05-04 03:32 50.23999 6.92089 24495 ft 416 kts 115°
2026-05-04 03:32 50.23009 6.96312 24032 ft 412 kts 115°
2026-05-04 03:32 50.22025 7.00502 23550 ft 410 kts 115°
2026-05-04 03:32 50.21046 7.04664 23037 ft 406 kts 115°
2026-05-04 03:33 50.20077 7.08775 22576 ft 401 kts 115°
2026-05-04 03:33 50.19117 7.12839 22100 ft 397 kts 115°
2026-05-04 03:33 50.18166 7.16855 21625 ft 393 kts 115°
2026-05-04 03:33 50.17223 7.20831 21140 ft 389 kts 115°
2026-05-04 03:34 50.16287 7.24770 20661 ft 385 kts 115°
2026-05-04 03:34 50.15358 7.28669 20158 ft 382 kts 115°
2026-05-04 03:34 50.14435 7.32542 19662 ft 378 kts 115°
2026-05-04 03:34 50.13520 7.36374 19140 ft 376 kts 115°
2026-05-04 03:35 50.12618 7.40139 18646 ft 374 kts 115°
2026-05-04 03:35 50.11706 7.43943 18107 ft 372 kts 115°
2026-05-04 03:35 50.10800 7.47720 17570 ft 369 kts 115°
2026-05-04 03:35 50.09913 7.51404 17060 ft 366 kts 115°
2026-05-04 03:36 50.09023 7.55097 16569 ft 363 kts 115°
2026-05-04 03:36 50.08140 7.58765 16066 ft 360 kts 114°
2026-05-04 03:36 50.07261 7.62404 15564 ft 358 kts 114°
2026-05-04 03:36 50.06384 7.66022 15067 ft 355 kts 114°
2026-05-04 03:37 50.05515 7.69603 14564 ft 353 kts 114°
2026-05-04 03:37 50.04649 7.73162 14071 ft 350 kts 114°
2026-05-04 03:37 50.03788 7.76692 13541 ft 348 kts 114°
2026-05-04 03:37 50.02930 7.80199 13040 ft 345 kts 114°
2026-05-04 03:38 50.02083 7.83657 12565 ft 341 kts 114°
2026-05-04 03:38 50.01242 7.87091 12081 ft 339 kts 114°
2026-05-04 03:38 50.00439 7.90529 11602 ft 338 kts 109°
2026-05-04 03:38 50.00048 7.94130 11127 ft 340 kts 95°
2026-05-04 03:39 50.00213 7.97794 10843 ft 343 kts 80°
2026-05-04 03:39 50.00907 8.01369 10771 ft 347 kts 69°
2026-05-04 03:39 50.01759 8.04833 10702 ft 348 kts 69°
2026-05-04 03:39 50.02619 8.08355 10602 ft 348 kts 70°
2026-05-04 03:40 50.03473 8.11865 10488 ft 347 kts 70°
2026-05-04 03:40 50.04326 8.15377 10374 ft 346 kts 70°
2026-05-04 03:40 50.05164 8.18827 10253 ft 334 kts 70°
2026-05-04 03:40 50.05970 8.22152 10139 ft 322 kts 70°
2026-05-04 03:41 50.06752 8.25381 9887 ft 315 kts 70°
2026-05-04 03:41 50.07519 8.28556 9815 ft 313 kts 70°
2026-05-04 03:41 50.08282 8.31722 9741 ft 313 kts 70°
2026-05-04 03:41 50.09043 8.34894 9668 ft 312 kts 70°
2026-05-04 03:42 50.09805 8.38061 9594 ft 312 kts 70°
2026-05-04 03:42 50.10566 8.41222 9507 ft 311 kts 70°
2026-05-04 03:42 50.11324 8.44380 9372 ft 311 kts 70°
2026-05-04 03:42 50.12081 8.47539 9272 ft 311 kts 70°
2026-05-04 03:43 50.12834 8.50692 9162 ft 310 kts 70°
2026-05-04 03:43 50.13588 8.53842 9053 ft 309 kts 70°
2026-05-04 03:43 50.14335 8.56964 8712 ft 307 kts 70°
2026-05-04 03:43 50.15077 8.60076 8349 ft 305 kts 70°
2026-05-04 03:44 50.15803 8.63129 7998 ft 303 kts 70°
2026-05-04 03:44 50.16541 8.66242 7647 ft 301 kts 70°
2026-05-04 03:44 50.17267 8.69300 7307 ft 300 kts 70°
2026-05-04 03:44 50.17987 8.72338 6976 ft 298 kts 70°
2026-05-04 03:45 50.18703 8.75357 6639 ft 296 kts 70°
2026-05-04 03:45 50.19414 8.78362 6299 ft 294 kts 70°
2026-05-04 03:45 50.20120 8.81345 5957 ft 292 kts 70°
2026-05-04 03:45 50.20804 8.84245 5790 ft 283 kts 70°
2026-05-04 03:46 50.21373 8.87133 5666 ft 274 kts 83°
2026-05-04 03:46 50.21304 8.90019 5539 ft 261 kts 106°
2026-05-04 03:46 50.20592 8.92533 5384 ft 248 kts 128°
2026-05-04 03:46 50.19399 8.94395 5097 ft 241 kts 150°
2026-05-04 03:47 50.17908 8.95455 4968 ft 231 kts 171°
2026-05-04 03:47 50.16311 8.95669 4990 ft 230 kts 189°
2026-05-04 03:47 50.14773 8.95085 4996 ft 227 kts 207°
2026-05-04 03:47 50.13450 8.93796 4972 ft 224 kts 224°
2026-05-04 03:48 50.12457 8.91952 4787 ft 222 kts 241°
2026-05-04 03:48 50.11849 8.89751 4522 ft 222 kts 250°
2026-05-04 03:48 50.11321 8.87488 4229 ft 221 kts 250°
2026-05-04 03:48 50.10794 8.85238 3935 ft 221 kts 250°
2026-05-04 03:49 50.10264 8.82990 3645 ft 220 kts 250°
2026-05-04 03:49 50.09748 8.80801 3360 ft 216 kts 250°
2026-05-04 03:49 50.09237 8.78633 3076 ft 211 kts 250°
2026-05-04 03:49 50.08731 8.76490 2789 ft 205 kts 250°
2026-05-04 03:50 50.08254 8.74471 2521 ft 195 kts 249°
2026-05-04 03:50 50.07802 8.72561 2300 ft 180 kts 249°
2026-05-04 03:50 50.07385 8.70801 2036 ft 167 kts 249°
2026-05-04 03:50 50.07001 8.69179 1821 ft 152 kts 249°
2026-05-04 03:51 50.06650 8.67699 1624 ft 138 kts 249°
2026-05-04 03:51 50.06334 8.66368 1445 ft 126 kts 249°
2026-05-04 03:51 50.06039 8.65111 1267 ft 122 kts 250°
2026-05-04 03:51 50.05740 8.63866 1092 ft 123 kts 250°
2026-05-04 03:52 50.05449 8.62628 930 ft 124 kts 250°
2026-05-04 03:52 50.05149 8.61367 779 ft 125 kts 249°
2026-05-04 03:52 50.04843 8.60104 595 ft 124 kts 249°
2026-05-04 03:52 50.04547 8.58844 426 ft 124 kts 250°
2026-05-04 03:53 50.04266 8.57664 365 ft 102 kts 250°
2026-05-04 03:53 50.04085 8.56895 360 ft 38 kts 250°
2026-05-04 03:53 50.04100 8.56717 365 ft 13 kts 360°
2026-05-04 03:53 50.04158 8.56763 363 ft 9 kts 26°
2026-05-04 03:54 50.04223 8.56789 363 ft 11 kts 16°
2026-05-04 03:54 50.04271 8.56883 360 ft 13 kts 70°
2026-05-04 03:54 50.04301 8.57005 364 ft 14 kts 69°
2026-05-04 03:54 50.04335 8.57151 361 ft 15 kts 69°
2026-05-04 03:55 50.04376 8.57323 363 ft 19 kts 70°
2026-05-04 03:55 50.04422 8.57514 363 ft 17 kts 69°
2026-05-04 03:55 50.04462 8.57683 365 ft 16 kts 70°
2026-05-04 03:55 50.04502 8.57854 367 ft 17 kts 71°
2026-05-04 03:56 50.04540 8.58013 364 ft 16 kts 69°
2026-05-04 03:56 50.04579 8.58172 365 ft 15 kts 70°
2026-05-04 03:56 50.04610 8.58301 370 ft 11 kts 70°
2026-05-04 03:56 50.04636 8.58414 371 ft 12 kts 69°
2026-05-04 03:57 50.04669 8.58547 370 ft 15 kts 70°
2026-05-04 03:57 50.04710 8.58710 370 ft 18 kts 67°
2026-05-04 03:57 50.04749 8.58862 371 ft 12 kts 70°
2026-05-04 03:57 50.04775 8.58974 372 ft 10 kts 70°
2026-05-04 03:58 50.04845 8.58991 367 ft 5 kts 339°
2026-05-04 03:58 50.04864 8.58979 368 ft 2 kts 340°
2026-05-04 03:58 50.04871 8.58975 366 ft 0 kts 341°